Grand Island, NE

9:33 AM CDT on September 30, 2016 (GMT -0500)
Central Nebraska Regional

Weather History for KGRI - January, 2012

Change the Weather History Date:

Wednesday, January 25, 2012

  Actual Average Record
Temperature  
Mean Temperature 35 °F 25 °F  
Max Temperature 47 °F 36 °F 65 °F (1944)
Min Temperature 22 °F 15 °F -19 °F (1936)
Degree Days  
Heating Degree Days 30 40  
Month to date heating degree days 856 1000  
Since 1 July heating degree days 3188 3519  
Cooling Degree Days 0 0  
Month to date cooling degree days 0 0  
Year to date cooling degree days 0 0  
Moisture  
Dew Point 24 °F    
Average Humidity 63    
Maximum Humidity 92    
Minimum Humidity 34    
Precipitation  
Precipitation 0.00 in 0.01 in 0.41 in (1950)
Month to date precipitation 0.15 0.41  
Year to date precipitation 0.15 0.41  
Snow  
Snow 0.00 in 0.30 in 5.00 in (1950)
Month to date snowfall 1.6 5.1  
Since 1 July snowfall 9.9 14.4  
Snow Depth 0.00 in    
Sea Level Pressure  
Sea Level Pressure 30.09 in    
Wind  
Wind Speed 8 mph (WSW)    
Max Wind Speed 17 mph    
Max Gust Speed 25 mph    
Visibility 9 miles    
Events      
T = Trace of Precipitation, MM = Missing Value Source: NWS Daily Summary

Daily Weather History Graph

Daily Weather History Graph

Search for Another Location

Airport or City:

Trip Planner

Search our weather history database for the weather conditions in past years. The results will help you decide how hot, cold, wet, or windy it might be!

Date:

Astronomy

Jan. 25, 2012 Rise Set
Actual Time 7:50 AM CST 5:41 PM CST
Civil Twilight 7:20 AM CST 6:10 PM CST
Nautical Twilight 6:47 AM CST 6:44 PM CST
Astronomical Twilight 6:14 AM CST 7:16 PM CST
Moon 8:48 AM CST (1/25) 8:37 PM CST (1/25)
Length of Visible Light 10h 50m
Length of Day
9h 50m
Waxing Crescent, 7% of the Moon is Illuminated
Jan 25
Waxing Crescent
Jan 30
First Quarter
Feb 7
Full
Feb 14
Last Quarter
Feb 21
New

Hourly Weather History & Observations

Time (CST) Temp. Windchill Dew Point Humidity Pressure Visibility Wind Dir Wind Speed Gust Speed Precip Events Conditions
12:53 AM 23.0 °F 13.9 °F 19.9 °F 88% 30.26 in 4.0 mi WNW 8.1 mph - N/A   Clear
1:53 AM 23.0 °F 13.1 °F 19.9 °F 88% 30.25 in 5.0 mi WNW 9.2 mph - N/A   Clear
2:53 AM 23.0 °F 15.8 °F 19.9 °F 88% 30.23 in 6.0 mi WNW 5.8 mph - N/A   Clear
3:53 AM 24.1 °F 16.0 °F 19.9 °F 84% 30.21 in 9.0 mi WNW 6.9 mph - N/A   Clear
4:43 AM 26.6 °F 16.8 °F 23.0 °F 86% 30.15 in 10.0 mi WNW 10.4 mph - N/A   Scattered Clouds
4:53 AM 27.0 °F 17.3 °F 24.1 °F 89% 30.20 in 10.0 mi NW 10.4 mph - N/A   Mostly Cloudy
5:53 AM 30.0 °F 21.1 °F 28.0 °F 92% 30.21 in 10.0 mi NW 10.4 mph - N/A   Overcast
6:53 AM 30.2 °F 20.8 °F 28.4 °F 93% 30.14 in 8.0 mi NNW 11.5 mph - N/A   Overcast
7:53 AM 30.9 °F 26.2 °F 28.0 °F 89% 30.19 in 10.0 mi North 4.6 mph - N/A   Overcast
8:53 AM 30.9 °F 24.3 °F 28.9 °F 92% 30.18 in 10.0 mi NNW 6.9 mph - N/A   Overcast
9:53 AM 32.0 °F 27.5 °F 28.9 °F 88% 30.19 in 10.0 mi WSW 4.6 mph - N/A   Overcast
10:05 AM 32.0 °F 27.5 °F 28.4 °F 87% 30.13 in 10.0 mi SW 4.6 mph - N/A   Overcast
10:53 AM 33.1 °F - 28.9 °F 85% 30.18 in 10.0 mi Calm Calm - N/A   Mostly Cloudy
11:17 AM 35.6 °F 32.8 °F 28.4 °F 75% 30.11 in 10.0 mi SW 3.5 mph - N/A   Scattered Clouds
11:53 AM 37.9 °F 32.1 °F 28.0 °F 68% 30.14 in 10.0 mi SSW 8.1 mph - N/A   Clear
12:53 PM 42.1 °F 38.4 °F 28.9 °F 60% 30.09 in 10.0 mi SSW 5.8 mph - N/A   Clear
1:53 PM 44.6 °F 40.7 °F 24.8 °F 46% 29.99 in 10.0 mi SW 6.9 mph - N/A   Clear
2:53 PM 45.0 °F 38.9 °F 26.1 °F 48% 30.01 in 10.0 mi South 12.7 mph - N/A   Clear
3:53 PM 46.9 °F - 23.0 °F 39% 29.99 in 10.0 mi SW 16.1 mph 24.2 mph N/A   Clear
4:53 PM 46.0 °F 40.6 °F 19.0 °F 34% 29.96 in 10.0 mi SSW 11.5 mph 20.7 mph N/A   Clear
5:53 PM 41.0 °F 35.2 °F 19.0 °F 41% 29.94 in 10.0 mi SSW 9.2 mph - N/A   Clear
6:53 PM 37.9 °F 31.5 °F 19.0 °F 47% 29.95 in 10.0 mi SSW 9.2 mph - N/A   Clear
7:53 PM 35.1 °F 28.6 °F 21.0 °F 57% 29.94 in 10.0 mi SW 8.1 mph - N/A   Clear
8:53 PM 33.1 °F 26.9 °F 19.9 °F 59% 29.93 in 10.0 mi SW 6.9 mph - N/A   Clear
9:53 PM 32.0 °F 25.6 °F 19.0 °F 59% 29.94 in 10.0 mi WSW 6.9 mph - N/A   Clear
10:53 PM 30.0 °F 24.1 °F 19.0 °F 64% 29.94 in 10.0 mi South 5.8 mph - N/A   Clear
11:53 PM 27.0 °F 19.5 °F 19.0 °F 72% 29.93 in 10.0 mi South 6.9 mph - N/A   Clear